Location: Narrabri
(30.3170°S, 149.7830°E)
Time: 06:56:04
(UTC+10:00)

OTV 5 (USA 277) - Visible Passes

Search period start: 22 August 2019 00:00
Search period end: 01 September 2019 00:00
Orbit: 305 x 329 km, 54.5° (Epoch: 20 August)

Date Brightness Start Highest point End Pass type
(mag) Time Alt. Az. Time Alt. Az. Time Alt. Az.
28 Aug ? 05:17:56 10° N 05:19:56 19° NE 05:21:58 10° ESE visible
29 Aug ? 05:31:40 10° NW 05:34:21 79° NE 05:37:06 10° SE visible
30 Aug ? 05:46:36 10° WNW 05:48:56 25° SW 05:51:18 10° SSE visible
31 Aug ? 04:30:38 20° ESE 04:30:38 20° ESE 04:31:46 10° ESE visible
